Home   Weather   Terrebonne   Past weeks

Flag for Canada Past Weather in Terrebonne, Quebec, Canada — Yesterday and Last 2 Weeks

Now
78 °F

Warm.


Feels Like: 80 °F
Forecast: 63 / 78 °F
Wind: 6 mph from West

Location: L'Assomption Airport

Current Time: Jul 27, 2017 at 5:02:14 pm

Latest Report: Jul 27, 2017 at 4:00 pm


Visibility: N/A

Pressure: 29.79 "Hg

Humidity: 63%

Dew Point: 64 °F

Location of TerrebonneLocation

Past Weather in Terrebonne — Graph

°F

Terrebonne Temperature Yesterday

Maximum temperature yesterday: 74 °F (at 12:00 pm)
Minimum temperature yesterday: 55 °F (at 5:00 am)
Average temperature yesterday: 66 °F

High & Low Weather Summary for the Past Weeks

 TemperatureHumidityPressure
High84 °F (Jul 18, 5:00 pm)100% (Jul 13, 4:00 am)30.24 "Hg (Jul 13, 4:00 am)
Low55 °F (Jul 26, 5:00 am)35% (Jul 22, 6:00 pm)29.75 "Hg (Jul 21, 4:00 pm)
Average68 °F78%29.97 "Hg
* Reported Jul 12 3:00 pm — Jul 27 3:00 pm, Terrebonne. Weather by CustomWeather, © 2017

Note: Actual official high and low records may vary slightly from our data, if they occured in-between our weather recording intervals... More about our weather records

Advertising

Terrebonne Weather History for the Previous 24 Hours

Scroll right to see more
 ConditionsComfort  
Time TempWeatherWind HumidityBarometerVisibility
3:00 pm
Thu, Jul 27
75 °FMild.5 mph66%29.80 "HgN/A
1:00 pm74 °FMild.5 mph70%29.83 "HgN/A
12:00 pm72 °FMild.5 mph74%29.83 "HgN/A
11:00 am71 °FMild.5 mph78%29.84 "HgN/A
10:00 am69 °FMild.6 mph84%29.85 "HgN/A
9:00 am66 °FMild.5 mph96%29.87 "HgN/A
8:00 am64 °FMild.3 mph99%29.88 "HgN/A
7:00 am65 °FMild.8 mph89%29.89 "HgN/A
6:00 am66 °FMild.6 mph85%29.89 "HgN/A
5:00 am65 °FMild.3 mph86%29.89 "HgN/A
4:00 am66 °FMild.7 mph89%29.90 "HgN/A
3:00 am66 °FMild.2 mph90%29.91 "HgN/A
2:00 am66 °FMild.2 mph89%29.93 "HgN/A
1:00 am67 °FMild.3 mph86%29.96 "HgN/A
12:00 am67 °FMild.5 mph85%29.97 "HgN/A
11:00 pm
Wed, Jul 26
65 °FMild.5 mph83%29.99 "HgN/A
10:00 pm68 °FMild.6 mph80%30.01 "HgN/A
9:00 pm68 °FMild.5 mph74%30.02 "HgN/A
8:00 pm69 °FMild.3 mph79%30.05 "HgN/A
7:00 pm71 °FMild.3 mph73%30.06 "HgN/A
5:00 pm73 °FMild.8 mph64%30.08 "HgN/A
Weather by CustomWeather, © 2017

See weather overviewHow to use our weather pages